Wind_Speed
21 21 22 21 22 22 20 18 16 14 13 13 14 16 17 19 22 24 26 29 33 35 34 33 32 32 30 29 28 28 28 27 26 24 24 24 24 23 21 19 19 20
19 20 23 23 21 22 21 18 15 14 14 15 16 17 17 16 16 17 18 20 25 30 33 32 32 32 31 29 29 29 29 28 28 27 27 26 26 26 25 22 21 21
18 17 22 24 22 22 22 19 16 15 15 16 17 16 16 16 14 14 13 12 14 20 25 27 29 31 32 31 31 29 27 27 27 28 29 30 30 28 27 25 23 22
18 15 19 23 22 22 22 19 17 16 15 15 14 14 16 17 14 12 11 9 8 12 16 17 19 23 27 27 27 25 24 23 23 24 26 29 32 32 30 27 25 24
19 17 17 21 23 23 22 20 18 16 16 15 13 13 16 16 13 11 11 10 8 9 12 14 14 16 17 18 19 19 19 20 22 23 23 24 28 32 34 32 29 27
21 19 19 20 23 25 25 23 21 18 16 15 14 13 14 14 12 11 12 12 10 10 12 14 15 15 15 15 17 18 19 19 21 22 22 23 27 31 36 38 37 34
23 23 22 22 24 27 28 28 27 24 21 18 18 17 15 13 12 13 16 16 14 12 12 13 14 14 15 15 16 18 19 20 21 21 21 22 25 29 34 37 38 37
26 26 26 26 27 28 29 29 30 29 25 22 21 21 20 17 16 17 19 19 17 14 13 13 14 15 16 16 16 18 20 21 22 22 21 22 23 25 29 33 36 36
28 28 28 29 29 30 30 30 31 31 29 25 24 24 23 22 22 22 21 20 18 16 15 15 16 17 18 18 19 20 22 23 24 23 22 22 22 23 25 29 35 36
31 30 30 31 31 32 31 31 31 31 31 29 28 27 27 26 26 25 24 23 21 20 19 18 19 20 21 22 23 23 24 25 27 27 25 24 24 24 23 26 31 35
33 33 32 32 33 33 33 33 32 32 31 30 30 30 30 30 29 28 28 26 24 23 21 21 22 23 24 25 25 25 25 25 27 29 28 27 26 26 25 25 27 31
35 34 34 34 34 34 34 34 34 34 33 33 33 33 32 32 32 32 31 29 27 25 24 25 26 27 27 27 27 27 27 26 26 28 28 28 28 28 28 28 28 29
34 34 35 35 34 35 35 35 35 35 35 35 35 35 34 34 34 34 33 32 31 30 29 29 30 30 30 30 30 30 30 28 27 27 27 28 29 29 30 30 30 30
33 34 35 35 35 36 36 36 37 37 37 36 36 36 35 35 35 35 35 34 34 34 33 33 33 32 33 33 33 33 33 32 32 30 29 29 30 29 31 32 33 33
33 34 35 36 36 36 37 37 37 38 38 38 37 37 37 36 37 37 37 37 37 36 36 36 35 35 35 35 36 36 36 36 36 35 32 31 30 31 32 35 36 36
34 35 35 36 36 37 37 38 38 38 39 39 39 38 38 38 38 38 39 39 39 39 38 38 38 37 37 37 38 38 39 39 39 38 36 34 33 34 35 37 38 39
34 34 35 36 37 37 38 39 39 39 39 39 39 39 39 39 39 40 40 40 40 40 41 41 40 40 40 39 40 41 41 41 41 40 39 38 37 36 37 38 39 41
32 33 34 35 36 37 38 39 39 40 40 40 40 40 40 40 40 40 40 41 41 41 41 42 42 42 42 42 42 42 43 43 43 42 41 41 40 40 40 40 41 42
30 32 33 34 35 36 37 38 38 39 40 41 41 41 41 41 41 41 41 41 41 41 42 42 43 43 44 44 44 45 45 45 45 44 43 43 42 42 42 42 43 44
26 28 31 32 34 35 36 37 38 38 39 40 41 41 41 41 42 42 42 42 42 42 42 43 43 44 44 44 45 46 47 47 47 47 46 44 44 45 45 45 45 45
24 26 28 30 32 34 35 37 38 38 39 40 40 41 41 42 42 42 43 43 43 44 44 44 44 44 44 45 45 46 48 49 50 50 49 48 47 47 47 46 46 46
25 25 26 28 29 30 32 34 36 37 38 40 41 41 42 42 43 43 43 44 44 45 45 46 46 46 45 45 46 46 48 50 52 53 53 51 49 48 48 48 48 48
25 26 27 27 28 28 29 30 31 32 34 35 37 39 41 42 43 44 44 44 45 46 46 46 47 47 48 47 47 47 48 51 53 54 54 54 52 51 50 49 49 49
25 26 27 28 28 28 28 28 28 29 29 30 32 34 36 38 40 41 42 43 44 45 45 46 46 47 47 47 47 47 48 50 53 54 55 55 54 53 52 51 51 52
24 26 27 28 28 29 29 29 29 29 29 29 29 30 31 32 34 36 38 39 40 41 42 43 44 44 45 45 46 46 46 48 51 53 54 55 55 55 54 53 53 54
20 21 22 23 25 26 27 28 29 29 30 30 30 30 30 31 31 32 33 34 35 36 37 38 39 40 41 41 42 42 43 45 47 49 51 52 54 55 56 56 56 56
Wind_Direction
207 198 193 197 201 197 190 192 198 197 196 197 201 207 215 223 226 229 233 237 239 238 233 228 228 229 231 232 236 240 243 247 248 247 248 250 253 256 257 256 249 243
222 210 201 202 204 198 190 190 196 195 195 197 197 196 197 203 212 222 229 233 233 232 230 229 229 230 232 233 237 239 242 248 251 252 251 251 251 252 253 254 252 248
232 221 208 205 206 201 196 198 199 194 194 196 197 199 197 197 208 225 230 226 220 217 222 229 235 238 238 238 240 242 243 247 251 253 253 253 252 251 251 251 250 249
237 228 211 206 207 201 196 197 198 196 196 196 201 210 205 198 204 221 228 227 217 208 213 221 229 237 239 238 239 239 239 242 246 250 252 253 253 253 252 250 248 247
240 237 224 214 213 208 201 200 204 207 208 209 214 216 212 210 213 222 233 240 235 226 225 225 230 238 236 235 239 240 242 247 250 253 257 259 258 256 252 248 246 244
238 239 234 225 220 218 216 218 225 227 225 228 233 230 227 229 229 229 242 256 257 247 240 238 242 242 237 240 250 253 256 260 260 260 265 270 267 262 256 251 248 248
236 234 234 232 228 225 224 228 235 240 243 248 254 255 253 246 238 242 255 265 266 255 246 245 247 246 244 251 260 262 264 269 271 273 277 280 278 270 260 253 249 249
239 236 234 233 233 233 232 233 237 241 246 254 258 260 262 257 251 254 261 265 266 261 256 256 257 257 258 261 264 266 268 271 273 277 280 284 286 279 264 250 246 247
241 241 240 238 238 239 239 240 242 245 249 255 257 257 262 265 264 264 264 263 264 265 264 265 266 267 268 268 267 266 268 270 272 273 276 278 281 281 269 253 246 247
242 243 244 244 244 244 245 245 247 249 252 255 257 257 260 263 265 267 266 262 258 257 258 263 267 267 267 269 269 268 269 273 273 271 272 273 272 274 273 264 256 252
240 242 244 245 247 249 250 250 251 253 254 255 256 257 259 260 262 265 266 264 262 258 257 263 268 268 267 269 272 273 275 277 278 277 277 276 274 272 272 272 269 261
237 240 243 245 247 250 252 253 254 255 255 256 256 257 259 261 264 266 268 269 268 267 267 270 274 274 274 274 276 277 278 279 281 282 281 280 279 276 274 274 274 273
234 238 241 243 245 247 250 252 254 255 256 256 257 258 259 262 264 266 268 269 268 269 270 271 273 274 274 275 276 277 277 278 279 279 279 280 279 276 275 275 275 277
232 235 238 240 242 245 247 250 252 255 256 257 258 259 260 261 262 264 265 266 267 268 269 270 271 271 272 273 275 276 277 278 278 277 277 279 278 275 276 278 277 275
231 233 236 239 241 243 245 248 250 253 255 256 258 259 259 260 261 262 264 265 266 267 268 269 269 270 270 271 273 275 276 277 278 277 276 276 276 275 277 279 277 274
230 233 236 239 242 243 245 246 248 250 252 255 256 257 257 258 259 261 262 264 265 266 268 268 269 269 269 270 271 272 273 274 275 275 275 274 272 273 275 277 275 274
230 232 235 238 241 243 245 246 248 249 251 252 254 255 256 257 258 259 260 261 263 264 266 267 268 269 269 268 269 270 271 272 272 273 273 272 271 271 271 272 273 273
229 231 233 236 239 242 245 246 248 250 251 252 253 255 256 256 257 258 258 259 260 261 262 263 265 266 267 268 268 268 269 270 271 271 271 270 270 269 269 268 269 270
234 234 235 237 239 241 244 246 248 249 251 253 254 255 256 256 257 258 258 259 259 259 260 260 262 263 265 266 267 268 269 269 269 269 268 268 268 267 267 266 265 266
240 240 241 241 242 243 244 246 247 249 250 252 253 254 255 256 256 257 258 259 259 260 260 260 260 261 263 264 265 266 267 268 268 268 267 266 266 266 266 265 264 264
241 243 244 245 246 247 247 247 248 248 249 250 251 252 254 255 255 256 256 257 258 259 260 260 260 261 261 262 262 263 264 265 266 267 267 265 264 265 266 266 265 265
242 243 244 246 248 249 250 251 251 251 251 251 251 251 252 253 253 254 254 255 256 257 258 259 260 260 260 260 260 261 262 263 264 265 266 265 264 264 265 265 266 266
247 248 248 249 250 251 252 253 254 254 255 255 255 254 254 254 254 254 254 254 255 255 256 257 258 259 259 259 259 259 259 260 262 263 264 264 264 263 263 264 265 266
253 255 255 256 256 255 255 255 255 255 256 256 257 257 257 258 258 258 257 257 257 257 257 258 258 259 259 260 260 259 258 258 259 260 261 262 263 263 263 263 263 264
258 259 260 260 261 261 260 260 259 258 258 258 258 258 258 259 260 261 261 262 262 263 263 263 263 263 262 262 262 262 261 260 260 260 260 261 262 262 262 262 263 263
260 260 261 261 262 262 262 262 262 262 262 261 261 261 261 261 261 262 263 264 265 267 267 267 268 268 267 267 266 265 265 264 264 263 263 263 263 263 264 264 265 265
Height
5780 5782 5785 5787 5788 5790 5793 5796 5799 5801 5803 5805 5807 5809 5812 5814 5816 5818 5819 5819 5820 5822 5824 5825 5826 5828 5829 5830 5832 5834 5836 5838 5839 5840 5841 5842 5842 5843 5844 5845 5846 5847
5778 5780 5783 5784 5787 5789 5792 5795 5798 5800 5801 5803 5805 5806 5808 5811 5814 5816 5816 5816 5816 5818 5821 5824 5825 5826 5827 5828 5829 5831 5833 5835 5837 5838 5839 5839 5840 5841 5841 5842 5843 5844
5776 5778 5781 5783 5786 5789 5792 5795 5797 5799 5801 5802 5804 5806 5807 5809 5811 5814 5815 5814 5813 5814 5817 5821 5823 5825 5826 5827 5828 5829 5830 5831 5832 5833 5834 5835 5836 5837 5838 5838 5839 5841
5775 5777 5780 5782 5784 5788 5791 5794 5796 5798 5800 5801 5803 5805 5806 5807 5809 5812 5814 5814 5813 5813 5815 5817 5819 5821 5822 5824 5826 5827 5828 5828 5828 5828 5830 5831 5832 5833 5834 5834 5835 5836
5774 5777 5779 5782 5784 5786 5789 5792 5794 5796 5798 5800 5802 5803 5805 5806 5807 5810 5812 5813 5813 5813 5814 5816 5817 5818 5820 5822 5824 5825 5826 5825 5824 5825 5826 5828 5828 5828 5829 5829 5830 5830
5773 5775 5778 5781 5783 5786 5788 5790 5791 5793 5795 5797 5799 5801 5803 5805 5805 5807 5810 5811 5811 5811 5813 5815 5816 5817 5818 5819 5821 5823 5823 5822 5821 5821 5822 5823 5823 5824 5825 5826 5828 5828
5771 5774 5776 5779 5781 5784 5787 5789 5789 5790 5792 5793 5794 5796 5799 5802 5804 5805 5807 5808 5808 5809 5810 5812 5814 5815 5816 5817 5818 5818 5819 5819 5818 5818 5818 5818 5819 5819 5820 5823 5825 5826
5769 5772 5774 5776 5778 5780 5783 5786 5787 5789 5791 5792 5793 5793 5795 5798 5801 5803 5804 5805 5806 5806 5808 5809 5811 5812 5813 5813 5814 5814 5815 5815 5815 5815 5815 5815 5815 5815 5815 5817 5820 5821
5766 5769 5771 5774 5775 5777 5778 5780 5782 5785 5787 5790 5792 5792 5793 5794 5796 5798 5801 5802 5803 5804 5805 5806 5807 5808 5809 5810 5810 5811 5811 5812 5812 5811 5812 5812 5812 5812 5812 5814 5816 5817
5763 5766 5768 5770 5772 5774 5776 5778 5779 5781 5783 5785 5788 5789 5790 5790 5792 5794 5796 5798 5800 5802 5803 5804 5805 5806 5806 5806 5807 5808 5808 5809 5809 5809 5809 5809 5809 5809 5810 5811 5812 5814
5760 5763 5765 5767 5769 5771 5773 5775 5777 5779 5781 5783 5784 5786 5787 5787 5788 5789 5791 5793 5795 5798 5800 5800 5801 5801 5802 5803 5804 5804 5805 5805 5806 5807 5808 5808 5808 5807 5807 5808 5808 5810
5758 5760 5762 5764 5766 5768 5769 5771 5773 5775 5777 5779 5781 5783 5784 5785 5785 5786 5787 5788 5790 5793 5795 5796 5797 5797 5797 5799 5799 5800 5800 5801 5803 5805 5806 5806 5806 5805 5805 5805 5805 5806
5755 5757 5759 5761 5763 5764 5766 5767 5769 5771 5773 5775 5777 5779 5781 5782 5783 5783 5784 5785 5786 5788 5790 5792 5793 5793 5794 5795 5795 5795 5796 5797 5800 5802 5802 5803 5803 5803 5802 5802 5803 5804
5752 5754 5755 5757 5759 5760 5762 5763 5765 5766 5768 5770 5773 5775 5777 5778 5779 5780 5780 5781 5783 5784 5786 5787 5788 5789 5790 5790 5791 5791 5791 5793 5795 5797 5799 5800 5800 5800 5800 5800 5800 5801
5748 5750 5752 5753 5755 5757 5758 5760 5761 5762 5764 5765 5768 5770 5772 5773 5774 5775 5776 5777 5778 5780 5781 5782 5783 5784 5785 5785 5786 5787 5787 5788 5790 5792 5794 5796 5796 5797 5797 5797 5797 5797
5745 5746 5748 5749 5751 5753 5754 5756 5757 5758 5760 5761 5763 5765 5767 5768 5770 5771 5772 5773 5774 5775 5776 5777 5778 5780 5781 5781 5782 5782 5783 5784 5785 5787 5789 5790 5792 5792 5792 5792 5792 5793
5741 5742 5744 5746 5747 5748 5750 5752 5753 5754 5756 5757 5758 5760 5761 5763 5764 5766 5767 5768 5769 5770 5771 5772 5773 5775 5776 5776 5777 5778 5778 5779 5780 5782 5783 5784 5786 5787 5787 5787 5787 5788
5736 5738 5740 5741 5743 5744 5746 5747 5749 5750 5751 5753 5754 5755 5757 5758 5760 5761 5762 5763 5764 5765 5766 5767 5768 5769 5771 5771 5772 5773 5773 5774 5775 5776 5777 5778 5780 5781 5782 5782 5782 5782
5732 5734 5735 5737 5738 5740 5741 5743 5744 5745 5747 5748 5749 5751 5752 5754 5755 5756 5757 5758 5759 5760 5761 5761 5762 5764 5765 5767 5767 5768 5769 5769 5770 5771 5772 5773 5773 5774 5776 5776 5777 5777
5728 5729 5731 5732 5734 5735 5737 5738 5739 5741 5742 5743 5744 5746 5747 5748 5750 5751 5752 5752 5753 5754 5755 5756 5757 5758 5760 5761 5763 5763 5763 5763 5764 5765 5766 5767 5767 5768 5769 5770 5770 5771
5724 5725 5727 5728 5730 5731 5732 5733 5735 5736 5737 5738 5739 5741 5742 5743 5744 5745 5746 5747 5748 5749 5749 5750 5751 5753 5754 5756 5757 5758 5758 5758 5758 5758 5759 5760 5761 5761 5762 5763 5763 5764
5720 5722 5723 5724 5726 5727 5728 5729 5730 5731 5732 5733 5735 5736 5737 5737 5738 5739 5740 5741 5742 5743 5743 5744 5745 5746 5748 5749 5751 5752 5752 5752 5752 5752 5752 5753 5754 5755 5756 5756 5757 5757
5716 5717 5719 5720 5722 5723 5724 5725 5727 5728 5729 5730 5730 5731 5732 5733 5734 5734 5735 5736 5737 5737 5738 5738 5739 5740 5741 5743 5745 5746 5746 5746 5746 5746 5746 5746 5747 5748 5749 5750 5750 5750
5712 5713 5714 5716 5717 5718 5719 5721 5722 5723 5724 5725 5726 5727 5728 5729 5729 5730 5731 5731 5732 5732 5733 5733 5733 5734 5736 5737 5738 5739 5740 5740 5739 5739 5740 5740 5741 5742 5742 5743 5743 5742
5709 5709 5710 5711 5712 5713 5714 5716 5717 5718 5719 5720 5721 5722 5723 5724 5725 5726 5726 5727 5727 5728 5728 5728 5728 5729 5731 5732 5732 5733 5733 5732 5732 5732 5734 5735 5735 5735 5735 5735 5735 5735
5706 5706 5707 5708 5708 5709 5710 5711 5712 5713 5714 5715 5716 5717 5718 5719 5720 5721 5721 5722 5722 5723 5723 5724 5724 5725 5726 5726 5727 5727 5726 5725 5725 5727 5728 5729 5729 5729 5728 5729 5729 5728